Hourly Data Report for September 12, 2017

All times are specified in Local Standard Time (LST). Add 1 hour to adjust for Daylight Saving Time where and when it is observed.

KUGLUKTUK A
NUNAVUT

67°49'00.000" N
115°08'38.000" W
22.60 m
2300903
71938
YCO

Download Data

Hourly Data (September 2017)
Hourly Data Report for September 12, 2017
Temp Definition
°C
Dew Point Temp Definition
°C
Rel Hum Definition
%
Wind Dir Definition
10's deg

Wind Spd Definition
km/h
Visibility Definition
km
Stn Press Definition
kPa
Hmdx Definition


Wind Chill Definition


Weather Definition


TIME
00:00 Legend Double Dagger 7.7 6.8 94 18 14 24.1 100.31     LegendNANA
01:00 Legend Double Dagger 7.5 6.5 94 22 14 24.1 100.34     LegendNANA
02:00 Legend Double Dagger 6.9 5.4 91 22 15 24.1 100.39     Cloudy
03:00 Legend Double Dagger 6.7 4.9 89 22 24 24.1 100.40     LegendNANA
04:00 Legend Double Dagger 6.3 4.4 87 21 25 24.1 100.42     LegendNANA
05:00 Legend Double Dagger 5.7 4.0 89 21 20 24.1 100.48     Mostly Cloudy
06:00 Legend Double Dagger 5.6 3.7 87 22 19 24.1 100.52     LegendNANA
07:00 Legend Double Dagger 5.5 3.8 89 25 13 24.1 100.57     LegendNANA
08:00 Legend Double Dagger 6.0 4.1 87 24 17 24.1 100.61     Mostly Cloudy
09:00 Legend Double Dagger 4.9 4.3 96 28 19 16.1 100.65     LegendNANA
10:00 Legend Double Dagger 4.7 2.3 84 27 23 19.3 100.74     Drizzle
11:00 Legend Double Dagger 5.4 1.2 74 28 27 24.1 100.79     Mostly Cloudy
12:00 Legend Double Dagger 5.1 1.0 74 28 28 24.1 100.85     LegendNANA
13:00 Legend Double Dagger 6.1 0.4 67 27 26 24.1 100.91     LegendNANA
14:00 Legend Double Dagger 5.9 0.4 68 29 36 24.1 100.94     Rain Showers
15:00 Legend Double Dagger 6.1 1.0 70 28 32 24.1 101.00     Rain Showers
16:00 Legend Double Dagger 6.0 1.0 71 29 28 24.1 101.05     Rain Showers
17:00 Legend Double Dagger 5.4 0.8 72 30 26 24.1 101.08     Mostly Cloudy
18:00 Legend Double Dagger 4.1 0.3 76 30 33 24.1 101.15     Rain Showers
19:00 Legend Double Dagger 3.5 0.6 82 29 23 24.1 101.21     Rain
20:00 Legend Double Dagger 3.1 0.2 81 28 32 24.1 101.25     Rain,Snow Grains
21:00 Legend Double Dagger 3.0 0.1 81 29 21 24.1 101.29     LegendNANA
22:00 Legend Double Dagger 1.6 -0.7 85 28 22 24.1 101.32     LegendNANA
23:00 Legend Double Dagger 0.8 -1.1 87 27 25 24.1 101.37     Mainly Clear

Notes on Data Quality.

Legend

  • E = Estimated
  • M = Missing
  • NA = Not Available
  • ‡ = Partner data that is not subject to review by the National Climate Archives
Date modified: